This is the latest recevied weather packets stored in our database for station/object W0AKY-13. If no packets are shown the sender has not sent any weather packets the latest 10 day(s).
| Time | Temp. | Humidity | Pressure | Rain* | Wind** | Luminosity | Snow |
|---|---|---|---|---|---|---|---|
| 1778010333 | 15.56° C | 44% | 1014.4 hPa | 0 mm | - | 627 W/m² | - |
| 1778010028 | 14.44° C | 42% | 1014.3 hPa | 0 mm | - | 603 W/m² | - |
| 1778009725 | 13.89° C | 42% | 1014.8 hPa | 0 mm | - | 467 W/m² | - |
| 1778009423 | 13.89° C | 44% | 1014.6 hPa | 0 mm | - | 200 W/m² | - |
| 1778009121 | 13.89° C | 43% | 1014.6 hPa | 0 mm | - | 224 W/m² | - |
| 1778008818 | 13.89° C | 42% | 1014.6 hPa | 0 mm | - | 281 W/m² | - |
| 1778008516 | 13.33° C | 44% | 1014.8 hPa | 0 mm | - | 270 W/m² | - |
| 1778008215 | 13.89° C | 44% | 1014.8 hPa | 0 mm | - | 235 W/m² | - |
| 1778007908 | 13.89° C | 46% | 1014.8 hPa | 0 mm | - | 215 W/m² | - |
| 1778007604 | 13.33° C | 43% | 1014.9 hPa | 0 mm | - | 224 W/m² | - |
| 1778007302 | 12.78° C | 44% | 1014.6 hPa | 0 mm | - | 184 W/m² | - |
| 1778006998 | 12.78° C | 45% | 1015.1 hPa | 0 mm | - | 167 W/m² | - |
| 1778006695 | 13.33° C | 42% | 1014.9 hPa | 0 mm | - | 161 W/m² | - |
| 1778006391 | 12.78° C | 45% | 1015.1 hPa | 0 mm | - | 181 W/m² | - |
| 1778006088 | 12.78° C | 44% | 1014.9 hPa | 0 mm | - | 154 W/m² | - |
| 1778005785 | 12.78° C | 44% | 1015.1 hPa | 0 mm | - | 123 W/m² | - |
| 1778005482 | 12.78° C | 43% | 1015.1 hPa | 0 mm | - | 120 W/m² | - |
| 1778005178 | 12.78° C | 43% | 1015.4 hPa | 0 mm | - | 118 W/m² | - |
| 1778004876 | 12.22° C | 43% | 1015.2 hPa | 0 mm | - | 107 W/m² | - |
| 1778004572 | 12.22° C | 43% | 1015 hPa | 0 mm | - | 107 W/m² | - |
| 1778004269 | 12.22° C | 42% | 1015.1 hPa | 0 mm | - | 94 W/m² | - |
| 1778003966 | 12.22° C | 40% | 1015.2 hPa | 0 mm | - | 91 W/m² | - |
| 1778003662 | 12.78° C | 41% | 1015.2 hPa | 0 mm | - | 87 W/m² | - |
| 1778003358 | 12.78° C | 41% | 1015.2 hPa | 0 mm | - | 120 W/m² | - |
| 1778003056 | 12.78° C | 40% | 1015.3 hPa | 0 mm | - | 121 W/m² | - |
* Rain latest hour (hover to see other rain measurements)
** Current wind speed in m/s (hover to see current wind gust speed)